GW3752 Weather Reports


time (UTC)temp
F
wind
direction
speed
knots
gust
knots
rain 1hr
in
rain 24hr
in
rain mn
in
humidity
%
barometer
mb
20260906113034 75 290 1.7 4.3 0.00 0.00 0.00 85 1013.6
20260906111536 75 297 1.7 4.3 0.00 0.00 0.00 85 1013.4
20260906110035 75 277 2.6 4.3 0.00 0.00 0.00 85 1013.1
20260906104538 75 313 0.9 1.7 0.00 0.00 0.00 85 1012.9
20260906103034 75 339 0.9 2.6 0.00 0.00 0.00 84 1012.7
20260906101534 76 320 2.6 4.3 0.00 0.00 0.00 83 1012.5
20260906100036 76 337 3.5 5.2 0.00 0.00 0.00 83 1012.5
20260906094534 76 296 1.7 4.3 0.00 0.00 0.00 83 1012.4
20260906093046 76 341 2.6 5.2 0.00 0.00 0.00 83 1012.3
20260906091535 76 342 4.3 6.1 0.00 0.00 0.00 82 1012.2
20260906090035 76 339 3.5 5.2 0.00 0.00 0.00 82 1012.1
20260906084542 75 346 1.7 3.5 0.00 0.00 0.00 83 1012.1
20260906083035 75 0 0.0 1.7 0.00 0.00 0.00 82 1012.1
20260906081534 75 358 1.7 3.5 0.00 0.00 0.00 81 1012.1
20260906080049 75 0 0.0 0.9 0.00 0.00 0.00 83 1012.1
20260906074537 75 360 0.0 1.7 0.00 0.00 0.00 83 1012.0
20260906073035 75 354 1.7 1.7 0.00 0.00 0.00 82 1012.1
20260906071534 75 355 0.0 0.9 0.00 0.00 0.00 82 1012.1
20260906070039 75 341 0.9 1.7 0.00 0.00 0.00 82 1012.2
20260906064536 75 356 0.0 1.7 0.00 0.00 0.00 82 1012.5
20260906063036 75 0 0.0 0.9 0.00 0.00 0.00 82 1012.2
20260906061539 76 308 0.0 0.9 0.00 0.00 0.00 81 1012.3
20260906060042 76 0 0.0 0.0 0.00 0.00 0.00 79 1012.4
20260906054534 76 0 0.0 0.9 0.00 0.00 0.00 79 1012.5
20260906053036 77 325 1.7 4.3 0.00 0.00 0.00 79 1012.7
20260906051537 76 353 0.9 7.0 0.00 0.00 0.00 79 1012.5
20260906050041 77 316 0.9 1.7 0.00 0.00 0.00 77 1012.3
20260906044536 78 0 0.0 0.0 0.00 0.00 0.00 74 1012.3
20260906043036 78 0 0.0 0.9 0.00 0.00 0.00 74 1012.3
20260906041542 78 0 0.0 0.0 0.00 0.00 0.00 74 1012.2
20260906040044 79 0 0.0 0.9 0.00 0.00 0.00 74 1012.2
20260906034537 79 0 0.0 0.0 0.00 0.00 0.00 73 1012.1
20260906033036 80 0 0.0 0.9 0.00 0.00 0.00 71 1012.1
20260906031535 81 0 0.0 1.7 0.00 0.00 0.00 69 1011.9
20260906030037 81 189 0.0 1.7 0.00 0.00 0.00 69 1011.8
20260906024535 81 0 0.0 1.7 0.00 0.00 0.00 68 1011.7
20260906023043 82 0 0.0 4.3 0.00 0.00 0.00 68 1011.6
20260906021534 82 243 0.9 9.6 0.00 0.00 0.00 78 1011.2
20260906020034 83 0 0.0 0.0 0.00 0.00 0.00 66 1011.1
20260906014544 83 0 0.0 0.0 0.00 0.00 0.00 64 1011.2
20260906013034 84 0 0.0 1.7 0.00 0.00 0.00 63 1011.3
20260906011535 86 169 0.9 1.7 0.00 0.00 0.00 59 1011.1
20260906010036 86 254 0.9 2.6 0.00 0.00 0.00 59 1010.9
20260906004535 87 237 0.9 4.3 0.00 0.00 0.00 58 1010.8
20260906003034 88 182 0.9 2.6 0.00 0.00 0.00 56 1010.9
20260906001535 89 0 0.0 0.9 0.00 0.00 0.00 65 1011.0
20260906000034 90 211 0.0 2.6 0.00 0.00 0.00 50 1011.3
20260905234536 91 221 2.6 5.2 0.00 0.00 0.00 60 1011.3
20260905233042 92 198 0.0 2.6 0.00 0.00 0.00 59 1011.1
20260905231549 93 174 2.6 5.2 0.00 0.00 0.00 44 1011.0
20260905230034 94 225 0.9 11.3 0.00 0.00 0.00 41 1010.8
20260905224539 97 196 2.6 6.1 0.00 0.00 0.00 40 1010.3
20260905223035 98 259 0.9 4.3 0.00 0.00 0.00 39 1010.5
20260905221541 97 216 0.9 2.6 0.00 0.00 0.00 40 1010.6
20260905220038 95 247 0.9 2.6 0.00 0.00 0.00 54 1010.6
20260905214534 95 267 1.7 4.3 0.00 0.00 0.00 54 1010.6
20260905213037 94 254 1.7 5.2 0.00 0.00 0.00 42 1010.6
20260905211535 93 273 0.9 6.1 0.00 0.00 0.00 44 1010.8
20260905210035 94 266 3.5 11.3 0.00 0.00 0.00 56 1011.1
20260905204537 98 295 0.0 5.2 0.00 0.00 0.00 52 1011.0
20260905203038 98 226 2.6 6.1 0.00 0.00 0.00 35 1011.3
20260905201535 100 187 7.0 9.6 0.00 0.00 0.00 34 1011.5
20260905200033 100 237 4.3 7.8 0.00 0.00 0.00 48 1011.4
20260905194535 100 107 3.5 11.3 0.00 0.00 0.00 36 1011.8
20260905193035 99 248 5.2 13.0 0.00 0.00 0.00 35 1011.9
20260905191537 101 0 1.7 4.3 0.00 0.00 0.00 35 1012.3
20260905190056 99 0 1.7 7.0 0.00 0.00 0.00 37 1012.6
20260905184553 100 283 1.7 5.2 0.00 0.00 0.00 38 1012.5
20260905183036 98 259 3.5 6.1 0.00 0.00 0.00 51 1012.8
20260905181534 97 229 3.5 6.1 0.00 0.00 0.00 41 1013.2
20260905180035 98 277 1.7 5.2 0.00 0.00 0.00 52 1013.2
20260905174543 98 272 1.7 5.2 0.00 0.00 0.00 53 1013.2
20260905173039 97 256 1.7 7.8 0.00 0.00 0.00 42 1013.3
20260905171533 96 354 3.5 6.1 0.00 0.00 0.00 54 1013.3
20260905170037 96 268 2.6 9.6 0.00 0.00 0.00 55 1013.3
20260905164536 96 183 2.6 5.2 0.00 0.00 0.00 55 1013.6
20260905163036 94 236 4.3 7.8 0.00 0.00 0.00 46 1013.9
20260905161537 94 267 2.6 6.1 0.00 0.00 0.00 48 1014.0
20260905160035 94 272 2.6 6.1 0.00 0.00 0.00 62 1014.2
20260905154534 93 227 2.6 5.2 0.00 0.00 0.00 52 1014.1
20260905153036 93 282 0.9 4.3 0.00 0.00 0.00 54 1014.1
20260905151538 91 300 2.6 6.1 0.00 0.00 0.00 69 1014.1
20260905150034 91 229 3.5 4.3 0.00 0.00 0.00 57 1014.1
20260905144541 90 263 2.6 6.1 0.00 0.00 0.00 68 1014.2
20260905143035 89 190 3.5 6.1 0.00 0.00 0.00 70 1014.3
20260905141542 87 208 3.5 6.1 0.00 0.00 0.00 60 1014.3
20260905140036 87 184 0.9 3.5 0.00 0.00 0.00 65 1014.4
20260905134537 85 166 0.0 1.7 0.00 0.00 0.00 68 1014.5
20260905133036 83 176 1.7 4.3 0.00 0.00 0.00 72 1014.5
20260905131552 81 171 0.9 2.6 0.00 0.00 0.00 76 1014.6
20260905130038 80 167 2.6 3.5 0.00 0.00 0.00 78 1014.6
20260905124546 79 0 0.0 0.0 0.00 0.00 0.00 79 1014.6
20260905123045 78 0 0.0 0.0 0.00 0.00 0.00 81 1014.6
20260905121538 76 0 0.0 0.9 0.00 0.00 0.00 84 1014.5
20260905120036 74 178 0.0 1.7 0.00 0.00 0.00 85 1014.3
20260905114542 73 176 0.9 1.7 0.00 0.00 0.00 85 1014.2